Location: Costa Mesa
(33.6411°N, 117.9187°W)
Time: 23:26:14
(UTC+00:00)

Cosmos 1076 Rocket - Pass Details

Date: 10 September 2024
Orbit: 584 x 606 km, 82.5° (Epoch: 09 October)

Event Time Altitude Azimuth Distance (km) Brightness Sun altitude
Rises 13:02:53 0° 352° (N) 2,819 7.0 -6.9°
Reaches altitude 10° 13:05:05 10° 351° (N) 1,918 6.1 -6.4°
Maximum altitude 13:09:18 79° 266° (W) 605 3.4 -5.5°
Drops below altitude 10° 13:13:32 10° 179° (S) 1,917 6.0 -4.7°
Sets 13:15:44 0° 178° (S) 2,818 6.9 -4.2°
